Regional Weather Roundup
Issued by NWS Charleston, SC

Current Version | Previous Version | Graphics & Text | Print | Product List | Glossary On
Versions: 1 2 3 4 5 6 7 8 9 10 11 12 13 14 15 16 17 18 19 20 21 22 23 24 25 26 27 28 29 30 31 32 33 34 35 36 37 38 39 40 41 42 43 44 45 46 47 48 49 50
000
ASUS42 KCHS 270826
RWRCHS

REGIONAL WEATHER ROUNDUP
NATIONAL WEATHER SERVICE CHARLESTON SC
400 AM EDT FRI MAR 27 2015

NOTE: "FAIR" INDICATES FEW OR NO CLOUDS BELOW 12,000 FEET WITH NO
SIGNIFICANT WEATHER AND/OR OBSTRUCTIONS TO VISIBILITY.

NOT ALL STATIONS ARE QUALITY CONTROLLED BY THE NATIONAL
WEATHER SERVICE. USE DATA WITH CAUTION...ESPECIALLY
DEWPOINT OBSERVATIONS.

SCZ027-030-031-034>040-042>050-270900-
...SOUTHEAST SOUTH CAROLINA...

CITY           SKY/WX    TMP DP  RH WIND       PRES   REMARKS
N CHARLESTON   CLOUDY    65  63  93 SW7       29.72F
WATERFRONT PRK   N/A     64 N/A N/A SW5         N/A
MOUNT PLEASANT CLOUDY    64  64 100 SW3       29.71F
PINOPOLIS        N/A     66  63  88 SW5       29.64F
MONCKS CORNER  CLOUDY    64  63  94 SW5       29.70F FOG
SUMMERVILLE    FAIR      63  63 100 S3        29.71F
BEAUFORT MCAS  CLOUDY    65  63  93 SW8       29.72F
BEAUFORT ARPT  CLOUDY    64  64 100 SW5       29.73S
HILTON HEAD IS CLOUDY    64  64 100 SW7       29.74F
WALTERBORO     CLOUDY    63  61  94 SW3       29.72F
ALLENDALE      FAIR      64  61  88 VRB5      29.71S

...SOUTHERN MIDLANDS AND PEE DEE...

CITY           SKY/WX    TMP DP  RH WIND       PRES   REMARKS
GEORGETOWN     NOT AVBL
KINGSTREE      NOT AVBL
ORANGEBURG     CLOUDY    65  58  78 SW8       29.70F
BARNWELL       FAIR      64  61  88 S6        29.71S
AIKEN          PTSUNNY   61  55  82 S8        29.72F
MANNING        FAIR      61  57  88 S3        29.69F
COLUMBIA       CLOUDY    65  58  78 SW6       29.68F
SUMTER         CLOUDY    64  59  81 SW7       29.66F
FLORENCE       CLOUDY    65  58  78 S7        29.69F
MYRTLE BEACH   CLOUDY    64  61  88 SW5       29.72F
N MYRTLE BEACH CLOUDY    64  61  90 CALM      29.71F

$$

GAZ063-065-086>088-099>101-113>116-118-119-134>141-150-270900-
...SOUTHEAST GEORGIA...

CITY           SKY/WX    TMP DP  RH WIND       PRES   REMARKS
SAVANNAH ARPT  CLOUDY    65  62  90 SW9       29.74F
HUNTER AAF     CLOUDY    64  64 100 W12       29.74R
FORT STEWART   CLOUDY    64  63  94 SW13      29.76R
STATESBORO     CLOUDY    64  64 100 SW9       29.72F
SYLVANIA       CLOUDY    63  62  97 SW6       29.73F
CLAXTON        PTSUNNY   63  63 100 S5        29.74F

...CSRA...CENTRAL AND FAR SOUTHEAST GEORGIA...

CITY           SKY/WX    TMP DP  RH WIND       PRES   REMARKS
THOMSON        CLOUDY    65  64  94 SW5       29.74R
AUGUSTA-BUSH   CLOUDY    63  59  87 S6        29.69F
AUGUSTA-DANIEL CLOUDY    64  59  83 S5        29.69F
SWAINSBORO     CLOUDY    64  64 100 SW10G16   29.74S
VIDALIA        CLOUDY    63  63 100 SW9       29.75F
EASTMAN        CLOUDY    64  64 100 SW5       29.79S
HAZLEHURST     CLOUDY    63  63 100 SW6       29.76S
ALMA           CLOUDY    63  61  93 SW6       29.77F
WAYCROSS       CLOUDY    65  64  97 SW5       29.77F
JESUP          PTSUNNY   64  63  94 SW6       29.78F
BAXLEY         CLOUDY    64  63  94 SW3       29.76F
BRUNSWICK      CLOUDY    64  61  88 W13G18    29.81R
SAINT SIMONS   CLOUDY    64  62  93 SW12      29.79R

$$

SCZ027-028-034-036>038-045-046-048>050-GAZ119-141-270900-
...LAKE AND SUPPLEMENTAL COASTAL OBSERVATIONS...

STATION/POSITION TIME  TEMP    WIND        PRES    WAVE   SWELL
                       AIR SEA DIR/SP/G            HT/PER HT/PER/DIR
                 (UTC) (F)     (DEG/KT/KT) (MB)    (FT/S) (FT/S/D)
UPR LAKE MARION  NOT AVBL
WINYAH BAY       0745   65     240/  2     1005.0F
LAKE MURRAY      0800   63     220/  6/  8 1004.4F
ACE BASIN NERRS  NOT AVBL
FORT PULASKI     0800   65 60  230/  5/  8 1007.6
SAPELO ISLAND    0800   65     230/  9     1008.0S

$$

ANZ835-935-AMZ111-154-330-350-352-354-370-450-454-472-270900-
...C-MAN AND BUOY OBSERVATIONS...

STATION/POSITION TIME  TEMP    WIND        PRES    WAVE   SWELL
                       AIR SEA DIR/SP/G            HT/PER HT/PER/DIR
                 (UTC) (F)     (DEG/KT/KT) (MB)    (FT/S) (FT/S/D)
BUOY 41004       0750   71 70  230/ 27/ 33 1005.1F   5/ 8   3/ 8
BUOY 41008       0750   62 61  230/ 10/ 12 1008.0F   4/ 8   3/110/ 8
FOLLY BEACH CMAN 0800   63     230/  9/ 12 1006.2F
CAPERS NEARSHORE 0700   62     210/ 14/ 16   N/A
FRIPP NEARSHORE  0700   62     230/ 16/ 17 1007.0


STATION/POSITION TIME  TEMP    WIND        PRES    WAVE   SWELL
                       AIR SEA DIR/SP/G            HT/PER HT/PER/DIR
                 (UTC) (F)     (DEG/KT/KT) (MB)    (FT/S) (FT/S/D)
5E ST. MARYS GA  0721      64                N/A     3/ 8
FRYING PAN BUOY  0750   69 66  230/ 10/ 14 1006.3F   6/ 8   5/120/ 8
BUOY 41025       NOT AVBL
CAPE LOOKOUT NC  0800   65     220/  8/ 13 1005.8F
BUOY 41002       0750   68 69  210/ 16/ 17 1011.2F   9/ 8   5/130/ 8
BUOY 41010       0720   77 76  200/ 17/ 19 1011.3F
ST AUGUSTINE FL  0800   65 63  210/ 11/ 13 1009.8F


$$



USA.gov is the U.S. government's official web portal to all federal, state and local government web resources and services.